WA0GMH-1 Weather Reports


Display with metric or nautical units.
time (UTC)temp
F
wind
direction
speed
MPH
gust
MPH
rain 1hr
in
rain 24hr
in
rain mn
in
humidity
%
barometer
mb
20260901003510 87 270 0.0 0.0 0.00 0.00 0.00 21 1013.5
20260901002828 87 270 0.0 0.0 0.00 0.00 0.00 19 1013.7
20260901002145 88 270 0.0 0.0 0.00 0.00 0.00 17 1013.5
20260901001503 88 270 0.0 0.0 0.00 0.00 0.00 17 1013.4
20260901000821 88 270 0.0 0.0 0.00 0.00 0.00 16 1013.6
20260901000139 89 270 0.0 0.0 0.00 0.00 0.00 15 1013.6
20260831235456 89 270 0.0 0.0 0.00 0.00 0.00 13 1013.6
20260831234814 89 270 0.0 0.0 0.00 0.00 0.00 10 1013.7
20260831234132 90 270 0.0 0.0 0.00 0.00 0.00 9 1013.8
20260831233450 90 270 0.0 0.0 0.00 0.00 0.00 8 1013.8
20260831232807 90 270 0.0 0.0 0.00 0.00 0.00 8 1013.7
20260831232126 91 270 0.0 0.0 0.00 0.00 0.00 8 1013.8
20260831231443 91 270 0.0 0.0 0.00 0.00 0.00 7 1013.8
20260831230801 91 270 0.0 0.0 0.00 0.00 0.00 6 1013.5
20260831230118 91 270 0.0 0.0 0.00 0.00 0.00 5 1013.4
20260831225437 92 270 0.0 0.0 0.00 0.00 0.00 4 1013.7
20260831224754 92 270 0.0 0.0 0.00 0.00 0.00 4 1013.6
20260831224112 92 270 0.0 0.0 0.00 0.00 0.00 4 1013.6
20260831223429 92 270 0.0 0.0 0.00 0.00 0.00 3 1013.6
20260831222748 92 270 0.0 0.0 0.00 0.00 0.00 2 1013.3
20260831222105 92 270 0.0 0.0 0.00 0.00 0.00 2 1013.6
20260831221423 92 270 0.0 0.0 0.00 0.00 0.00 1 1013.5
20260831220056 92 270 0.0 0.0 0.00 0.00 0.00 1 1013.7
20260831215413 92 270 0.0 0.0 0.00 0.00 0.00 1 1013.5
20260831214731 92 270 0.0 0.0 0.00 0.00 0.00 1 1013.6
20260831214048 92 270 0.0 0.0 0.00 0.00 0.00 1 1013.6
20260831213407 92 270 0.0 0.0 0.00 0.00 0.00 1 1013.6
20260831212724 92 270 0.0 0.0 0.00 0.00 0.00 1 1013.5
20260831212042 92 270 0.0 0.0 0.00 0.00 0.00 2 1013.7
20260831211400 92 270 0.0 0.0 0.00 0.00 0.00 1 1014.0
20260831210718 92 270 0.0 0.0 0.00 0.00 0.00 3 1013.8
20260831210035 92 270 0.0 0.0 0.00 0.00 0.00 3 1013.7
20260831205353 92 270 0.0 0.0 0.00 0.00 0.00 3 1013.9
20260831204711 92 270 0.0 0.0 0.00 0.00 0.00 3 1013.8
20260831204029 92 270 0.0 0.0 0.00 0.00 0.00 4 1014.0
20260831203346 92 270 0.0 0.0 0.00 0.00 0.00 4 1014.1
20260831202704 92 270 0.0 0.0 0.00 0.00 0.00 4 1014.1
20260831202022 92 270 0.0 0.0 0.00 0.00 0.00 3 1014.1
20260831201340 91 270 0.0 0.0 0.00 0.00 0.00 5 1014.0
20260831200657 90 270 0.0 0.0 0.00 0.00 0.00 7 1014.2
20260831200015 90 270 0.0 0.0 0.00 0.00 0.00 8 1014.1
20260831195333 89 270 0.0 0.0 0.00 0.00 0.00 8 1014.4
20260831194651 89 270 0.0 0.0 0.00 0.00 0.00 8 1014.3
20260831194008 88 270 0.0 0.0 0.00 0.00 0.00 8 1014.1
20260831193326 88 270 0.0 0.0 0.00 0.00 0.00 7 1014.2
20260831192644 88 270 0.0 0.0 0.00 0.00 0.00 8 1014.3
20260831192002 87 270 0.0 0.0 0.00 0.00 0.00 8 1014.5
20260831191319 87 270 0.0 0.0 0.00 0.00 0.00 8 1014.4
20260831190637 86 270 0.0 0.0 0.00 0.00 0.00 9 1014.4
20260831185955 86 270 0.0 0.0 0.00 0.00 0.00 11 1014.5
20260831185313 86 270 0.0 0.0 0.00 0.00 0.00 11 1014.5
20260831184630 85 270 0.0 0.0 0.00 0.00 0.00 14 1014.6
20260831183948 85 270 0.0 0.0 0.00 0.00 0.00 15 1014.6
20260831183306 84 270 0.0 0.0 0.00 0.00 0.00 17 1014.6
20260831182624 84 270 0.0 0.0 0.00 0.00 0.00 17 1014.6
20260831181941 84 270 0.0 0.0 0.00 0.00 0.00 18 1014.5
20260831181300 83 270 0.0 0.0 0.00 0.00 0.00 18 1014.4
20260831180617 83 270 0.0 0.0 0.00 0.00 0.00 19 1014.4
20260831175935 82 270 0.0 0.0 0.00 0.00 0.00 21 1014.8
20260831175252 82 270 0.0 0.0 0.00 0.00 0.00 21 1014.8
20260831174611 81 270 0.0 0.0 0.00 0.00 0.00 22 1014.8
20260831173928 81 270 0.0 0.0 0.00 0.00 0.00 24 1015.0
20260831173246 80 270 0.0 0.0 0.00 0.00 0.00 25 1015.2
20260831172603 80 270 0.0 0.0 0.00 0.00 0.00 26 1015.1
20260831171922 80 270 0.0 0.0 0.00 0.00 0.00 27 1015.3
20260831171239 79 270 0.0 0.0 0.00 0.00 0.00 29 1015.1
20260831170557 79 270 0.0 0.0 0.00 0.00 0.00 32 1014.9
20260831165914 78 270 0.0 0.0 0.00 0.00 0.00 32 1014.9
20260831165233 78 270 0.0 0.0 0.00 0.00 0.00 32 1015.0
20260831164550 78 270 0.0 0.0 0.00 0.00 0.00 33 1015.1
20260831163908 78 270 0.0 0.0 0.00 0.00 0.00 35 1015.0
20260831163225 77 270 0.0 0.0 0.00 0.00 0.00 36 1015.1
20260831162544 76 270 0.0 0.0 0.00 0.00 0.00 36 1015.1
20260831161901 76 270 0.0 0.0 0.00 0.00 0.00 38 1015.1
20260831161219 75 270 0.0 0.0 0.00 0.00 0.00 38 1015.1
20260831160536 75 270 0.0 0.0 0.00 0.00 0.00 39 1015.1
20260831155855 75 270 0.0 0.0 0.00 0.00 0.00 41 1014.9
20260831155212 74 270 0.0 0.0 0.00 0.00 0.00 41 1015.1
20260831154530 74 270 0.0 0.0 0.00 0.00 0.00 41 1014.9
20260831153848 74 270 0.0 0.0 0.00 0.00 0.00 42 1014.8
20260831153206 73 270 0.0 0.0 0.00 0.00 0.00 43 1014.6
20260831152523 73 270 0.0 0.0 0.00 0.00 0.00 44 1014.8
20260831151841 72 270 0.0 0.0 0.00 0.00 0.00 44 1014.8
20260831151159 72 270 0.0 0.0 0.00 0.00 0.00 44 1014.8
20260831150517 71 270 0.0 0.0 0.00 0.00 0.00 46 1014.9
20260831145834 71 270 0.0 0.0 0.00 0.00 0.00 47 1014.9
20260831145152 71 270 0.0 0.0 0.00 0.00 0.00 47 1014.8
20260831144510 70 270 0.0 0.0 0.00 0.00 0.00 48 1014.9
20260831143828 70 270 0.0 0.0 0.00 0.00 0.00 49 1014.8
20260831143145 69 270 0.0 0.0 0.00 0.00 0.00 50 1014.8
20260831142503 69 270 0.0 0.0 0.00 0.00 0.00 50 1014.5
20260831141821 69 270 0.0 0.0 0.00 0.00 0.00 51 1014.5
20260831141139 69 270 0.0 0.0 0.00 0.00 0.00 51 1014.3
20260831140456 69 270 0.0 0.0 0.00 0.00 0.00 52 1014.5
20260831135814 69 270 0.0 0.0 0.00 0.00 0.00 53 1014.1
20260831135132 69 270 0.0 0.0 0.00 0.00 0.00 53 1014.1
20260831134450 69 270 0.0 0.0 0.00 0.00 0.00 53 1014.3
20260831133807 69 270 0.0 0.0 0.00 0.00 0.00 54 1014.2
20260831133125 69 270 0.0 0.0 0.00 0.00 0.00 54 1014.0
20260831132443 69 270 0.0 0.0 0.00 0.00 0.00 54 1014.1
20260831131801 69 270 0.0 0.0 0.00 0.00 0.00 54 1014.0
20260831131118 69 270 0.0 0.0 0.00 0.00 0.00 54 1014.0
20260831130436 69 270 0.0 0.0 0.00 0.00 0.00 55 1013.8
20260831125754 69 270 0.0 0.0 0.00 0.00 0.00 55 1013.6
20260831125112 69 270 0.0 0.0 0.00 0.00 0.00 55 1013.5
20260831124429 69 270 0.0 0.0 0.00 0.00 0.00 55 1013.2
20260831123747 69 270 0.0 0.0 0.00 0.00 0.00 55 1013.2
20260831123105 69 270 0.0 0.0 0.00 0.00 0.00 56 1013.2
20260831122423 69 270 0.0 0.0 0.00 0.00 0.00 55 1012.9
20260831121740 69 270 0.0 0.0 0.00 0.00 0.00 55 1012.9
20260831121058 69 270 0.0 0.0 0.00 0.00 0.00 56 1012.9
20260831120416 70 270 0.0 0.0 0.00 0.00 0.00 57 1012.7
20260831115734 70 270 0.0 0.0 0.00 0.00 0.00 57 1012.6
20260831115051 70 270 0.0 0.0 0.00 0.00 0.00 57 1012.7
20260831114410 70 270 0.0 0.0 0.00 0.00 0.00 57 1012.6
20260831113727 71 270 0.0 0.0 0.00 0.00 0.00 58 1012.4
20260831113045 71 270 0.0 0.0 0.00 0.00 0.00 58 1012.3
20260831112402 71 270 0.0 0.0 0.00 0.00 0.00 59 1012.2
20260831111720 71 270 0.0 0.0 0.00 0.00 0.00 59 1012.1
20260831111038 71 270 0.0 0.0 0.00 0.00 0.00 59 1012.0
20260831110356 72 270 0.0 0.0 0.00 0.00 0.00 59 1011.7
20260831105713 72 270 0.0 0.0 0.00 0.00 0.00 58 1011.7
20260831105032 72 270 0.0 0.0 0.00 0.00 0.00 57 1011.8
20260831104349 72 270 0.0 0.0 0.00 0.00 0.00 57 1011.7
20260831103707 72 270 0.0 0.0 0.00 0.00 0.00 55 1011.4
20260831103024 73 270 0.0 0.0 0.00 0.00 0.00 55 1011.5
20260831102343 73 270 0.0 0.0 0.00 0.00 0.00 53 1011.5
20260831101700 73 270 0.0 0.0 0.00 0.00 0.00 53 1011.3
20260831101018 73 270 0.0 0.0 0.00 0.00 0.00 51 1011.4
20260831100335 73 270 0.0 0.0 0.00 0.00 0.00 50 1011.4
20260831095654 73 270 0.0 0.0 0.00 0.00 0.00 49 1011.2
20260831095011 73 270 0.0 0.0 0.00 0.00 0.00 47 1011.2
20260831094329 74 270 0.0 0.0 0.00 0.00 0.00 44 1011.1
20260831093646 74 270 0.0 0.0 0.00 0.00 0.00 43 1011.2
20260831093005 74 270 0.0 0.0 0.00 0.00 0.00 42 1011.1
20260831092322 74 270 0.0 0.0 0.00 0.00 0.00 39 1010.8
20260831091640 74 270 0.0 0.0 0.00 0.00 0.00 38 1010.6
20260831090957 75 270 0.0 0.0 0.00 0.00 0.00 37 1010.6
20260831090316 75 270 0.0 0.0 0.00 0.00 0.00 35 1010.4
20260831085633 75 270 0.0 0.0 0.00 0.00 0.00 35 1010.5
20260831084951 76 270 0.0 0.0 0.00 0.00 0.00 35 1010.4
20260831084309 76 270 0.0 0.0 0.00 0.00 0.00 35 1010.2
20260831083627 76 270 0.0 0.0 0.00 0.00 0.00 35 1010.1
20260831082944 77 270 0.0 0.0 0.00 0.00 0.00 35 1010.3
20260831082306 77 270 0.0 0.0 0.00 0.00 0.00 35 1010.1
20260831081620 77 270 0.0 0.0 0.00 0.00 0.00 36 1009.9
20260831080938 78 270 0.0 0.0 0.00 0.00 0.00 36 1009.9
20260831080255 78 270 0.0 0.0 0.00 0.00 0.00 35 1009.9
20260831075613 78 270 0.0 0.0 0.00 0.00 0.00 36 1009.8
20260831074931 78 270 0.0 0.0 0.00 0.00 0.00 36 1009.6
20260831074249 79 270 0.0 0.0 0.00 0.00 0.00 36 1009.6
20260831073606 79 270 0.0 0.0 0.00 0.00 0.00 36 1009.3
20260831072924 79 270 0.0 0.0 0.00 0.00 0.00 35 1009.3
20260831072242 79 270 0.0 0.0 0.00 0.00 0.00 34 1009.3
20260831071600 79 270 0.0 0.0 0.00 0.00 0.00 34 1009.2
20260831070917 80 270 0.0 0.0 0.00 0.00 0.00 35 1009.3
20260831070235 80 270 0.0 0.0 0.00 0.00 0.00 36 1009.3
20260831065553 80 270 0.0 0.0 0.00 0.00 0.00 35 1009.3
20260831064911 80 270 0.0 0.0 0.00 0.00 0.00 35 1009.3
20260831063546 80 270 0.0 0.0 0.00 0.00 0.00 34 1009.4
20260831062904 81 270 0.0 0.0 0.00 0.00 0.00 33 1009.5
20260831062222 81 270 0.0 0.0 0.00 0.00 0.00 33 1009.1
20260831061539 81 270 0.0 0.0 0.00 0.00 0.00 33 1009.0
20260831060857 81 270 0.0 0.0 0.00 0.00 0.00 33 1009.1
20260831060215 81 270 0.0 0.0 0.00 0.00 0.00 33 1009.0
20260831055533 81 270 0.0 0.0 0.00 0.00 0.00 33 1009.0
20260831054850 81 270 0.0 0.0 0.00 0.00 0.00 33 1009.0
20260831054209 81 270 0.0 0.0 0.00 0.00 0.00 33 1008.9
20260831053526 81 270 0.0 0.0 0.00 0.00 0.00 33 1009.0
20260831052844 81 270 0.0 0.0 0.00 0.00 0.00 32 1009.0
20260831052201 81 270 0.0 0.0 0.00 0.00 0.00 32 1009.0
20260831051520 82 270 0.0 0.0 0.00 0.00 0.00 32 1008.9
20260831050837 82 270 0.0 0.0 0.00 0.00 0.00 32 1008.9
20260831050155 82 270 0.0 0.0 0.00 0.00 0.00 32 1009.0
20260831045512 82 270 0.0 0.0 0.00 0.00 0.00 31 1009.1
20260831044831 82 270 0.0 0.0 0.00 0.00 0.00 31 1009.0
20260831044148 82 270 0.0 0.0 0.00 0.00 0.00 31 1009.0
20260831043506 82 270 0.0 0.0 0.00 0.00 0.00 30 1008.9
20260831042823 82 270 0.0 0.0 0.00 0.00 0.00 30 1008.8
20260831042142 83 270 0.0 0.0 0.00 0.00 0.00 30 1008.9
20260831041459 83 270 0.0 0.0 0.00 0.00 0.00 30 1008.8
20260831040817 83 270 0.0 0.0 0.00 0.00 0.00 30 1008.8
20260831040134 83 270 0.0 0.0 0.00 0.00 0.00 30 1009.0
20260831035453 83 270 0.0 0.0 0.00 0.00 0.00 30 1008.8
20260831034810 83 270 0.0 0.0 0.00 0.00 0.00 29 1008.5
20260831034128 83 270 0.0 0.0 0.00 0.00 0.00 29 1008.8
20260831033445 83 270 0.0 0.0 0.00 0.00 0.00 28 1008.8
20260831032804 83 270 0.0 0.0 0.00 0.00 0.00 27 1008.6
20260831032121 83 270 0.0 0.0 0.00 0.00 0.00 26 1008.3
20260831031439 84 270 0.0 0.0 0.00 0.00 0.00 26 1008.5
20260831030756 83 270 0.0 0.0 0.00 0.00 0.00 26 1008.4
20260831030115 84 270 0.0 0.0 0.00 0.00 0.00 26 1008.7
20260831025432 83 270 0.0 0.0 0.00 0.00 0.00 26 1008.5
20260831024750 83 270 0.0 0.0 0.00 0.00 0.00 27 1008.4
20260831024108 84 270 0.0 0.0 0.00 0.00 0.00 27 1008.5
20260831023426 84 270 0.0 0.0 0.00 0.00 0.00 28 1008.5
20260831022743 84 270 0.0 0.0 0.00 0.00 0.00 27 1008.6
20260831022101 84 270 0.0 0.0 0.00 0.00 0.00 27 1008.6
20260831021419 85 270 0.0 0.0 0.00 0.00 0.00 27 1008.4
20260831020737 85 270 0.0 0.0 0.00 0.00 0.00 27 1008.6
20260831015412 85 270 0.0 0.0 0.00 0.00 0.00 25 1008.5
20260831014730 86 270 0.0 0.0 0.00 0.00 0.00 24 1008.4
20260831014048 86 270 0.0 0.0 0.00 0.00 0.00 22 1008.4
20260831013405 86 270 0.0 0.0 0.00 0.00 0.00 21 1008.5
20260831012723 86 270 0.0 0.0 0.00 0.00 0.00 20 1008.3
20260831012041 87 270 0.0 0.0 0.00 0.00 0.00 19 1008.3
20260831011359 87 270 0.0 0.0 0.00 0.00 0.00 17 1008.4
20260831010034 88 270 0.0 0.0 0.00 0.00 0.00 15 1008.2
20260831005352 89 270 0.0 0.0 0.00 0.00 0.00 14 1008.3
20260831004710 89 270 0.0 0.0 0.00 0.00 0.00 13 1008.3
20260831004027 90 270 0.0 0.0 0.00 0.00 0.00 11 1008.2